Weather History for Rochelle, IL

Change the Weather History Date:

Saturday, December 10, 2011

  Actual Average (KRFD) Record (KRFD)
Temperature  
Mean Temperature 16 °F 27 °F  
Max Temperature 25 °F 35 °F 57 °F (1911)
Min Temperature 8 °F 19 °F -20 °F (1919)
Degree Days  
Heating Degree Days 48 38  
Month to date heating degree days 362  
Since 1 July heating degree days 1697  
Cooling Degree Days 0 0  
Month to date cooling degree days 0  
Year to date cooling degree days 820  
Moisture  
Dew Point 9 °F    
Average Humidity 73    
Maximum Humidity 90    
Minimum Humidity 52    
Precipitation  
Precipitation 0.00 in 0.07 in 1.60 in (2003)
Month to date precipitation 0.75  
Year to date precipitation 35.01  
Snow  
Snow 0.00 in 0.40 in 7.00 in (1944)
Month to date snowfall 3.2  
Since 1 July snowfall 5.0  
Snow Depth -    
Sea Level Pressure  
Sea Level Pressure 30.46 in    
Wind  
Wind Speed 8 mph (WSW)    
Max Wind Speed 15 mph    
Max Gust Speed 20 mph    
Visibility 10 miles    
Events      
T = Trace of Precipitation, MM = Missing Value Source: NWS Daily Summary

Daily Weather History Graph

Daily Weather History Graph

Search for Another Location

Airport:

Trip Planner

Search our weather history database for the weather conditions in past years. The results will help you decide how hot, cold, wet, or windy it might be!

Date:

Astronomy

Dec. 10, 2011 Rise Set
Actual Time 7:12 AM CST 4:25 PM CST
Civil Twilight 6:41 AM CST 4:56 PM CST
Nautical Twilight 6:06 AM CST 5:31 PM CST
Astronomical Twilight 5:32 AM CST 6:05 PM CST
Moon 4:38 PM CST (12/10) 7:13 AM CST (12/10)
Length of Visible Light 10h 15m
Length of Day
9h 12m
Full, 100% of the Moon is Illuminated
Dec 10
Full
Dec 17
Last Quarter
Dec 24
New
Jan 1
First Quarter
Jan 9
Full

Hourly Weather History & Observations

Time (CST) Temp. Windchill Dew Point Humidity Pressure Visibility Wind Dir Wind Speed Gust Speed Precip Events Conditions
12:15 AM 13.8 °F 3.7 °F 8.4 °F 79% 30.45 in 10.0 mi West 6.9 mph - N/A   Clear
12:35 AM 12.7 °F 5.0 °F 8.4 °F 83% 30.46 in 10.0 mi West 4.6 mph - N/A   Clear
12:55 AM 12.6 °F 4.8 °F 8.2 °F 83% 30.45 in 10.0 mi West 4.6 mph - N/A   Clear
1:15 AM 11.8 °F 3.9 °F 7.7 °F 83% 30.45 in 10.0 mi WSW 4.6 mph - N/A   Clear
1:35 AM 11.1 °F 3.1 °F 7.5 °F 85% 30.45 in 10.0 mi WSW 4.6 mph - N/A   Clear
1:55 AM 10.2 °F 0.6 °F 7.0 °F 87% 30.45 in 10.0 mi WSW 5.8 mph - N/A   Clear
2:15 AM 10.9 °F 2.9 °F 7.7 °F 87% 30.46 in 10.0 mi West 4.6 mph - N/A   Clear
2:35 AM 10.8 °F 2.7 °F 7.0 °F 85% 30.46 in 10.0 mi West 4.6 mph - N/A   Clear
2:55 AM 10.2 °F 0.6 °F 7.0 °F 87% 30.46 in 10.0 mi West 5.8 mph - N/A   Clear
3:15 AM 10.4 °F 0.8 °F 7.2 °F 87% 30.45 in 10.0 mi West 5.8 mph - N/A   Clear
3:35 AM 9.7 °F -0.1 °F 6.6 °F 87% 30.45 in 10.0 mi West 5.8 mph - N/A   Clear
3:55 AM 10.4 °F 0.8 °F 7.0 °F 86% 30.45 in 10.0 mi West 5.8 mph - N/A   Clear
4:15 AM 9.5 °F 1.2 °F 6.6 °F 88% 30.45 in 10.0 mi West 4.6 mph - N/A   Clear
4:35 AM 10.0 °F -0.9 °F 6.6 °F 86% 30.46 in 10.0 mi West 6.9 mph - N/A   Clear
4:55 AM 10.2 °F -1.7 °F 6.6 °F 85% 30.47 in 10.0 mi West 8.1 mph - N/A   Clear
5:15 AM 10.0 °F -1.9 °F 6.4 °F 85% 30.46 in 10.0 mi West 8.1 mph - N/A   Clear
5:35 AM 10.2 °F 0.6 °F 6.6 °F 85% 30.47 in 10.0 mi West 5.8 mph - N/A   Clear
5:55 AM 9.7 °F -0.1 °F 6.6 °F 87% 30.48 in 10.0 mi West 5.8 mph - N/A   Clear
6:15 AM 9.5 °F -0.3 °F 6.1 °F 86% 30.48 in 10.0 mi WSW 5.8 mph - N/A   Clear
6:35 AM 9.0 °F 0.6 °F 5.9 °F 87% 30.48 in 10.0 mi WSW 4.6 mph - N/A   Clear
6:55 AM 8.2 °F -0.3 °F 5.5 °F 89% 30.49 in 10.0 mi SW 4.6 mph - N/A   Clear
7:15 AM 8.6 °F 0.1 °F 6.3 °F 90% 30.49 in 10.0 mi SW 4.6 mph - N/A   Clear
7:35 AM 9.5 °F -0.3 °F 6.8 °F 89% 30.49 in 10.0 mi WSW 5.8 mph - N/A   Clear
7:55 AM 10.4 °F -2.4 °F 7.2 °F 87% 30.50 in 10.0 mi WSW 9.2 mph - N/A   Clear
8:15 AM 11.3 °F -0.4 °F 7.9 °F 86% 30.50 in 10.0 mi WSW 8.1 mph - N/A   Clear
8:35 AM 12.6 °F -0.6 °F 8.8 °F 85% 30.51 in 10.0 mi WSW 10.4 mph - N/A   Clear
8:55 AM 13.5 °F 1.3 °F 9.5 °F 84% 30.51 in 10.0 mi WSW 9.2 mph - N/A   Clear
9:15 AM 14.9 °F 3.1 °F 9.9 °F 80% 30.51 in 10.0 mi WSW 9.2 mph - N/A   Clear
9:35 AM 16.2 °F 6.5 °F 9.5 °F 75% 30.51 in 10.0 mi West 6.9 mph - N/A   Clear
9:55 AM 17.4 °F 8.0 °F 10.6 °F 75% 30.51 in 10.0 mi WSW 6.9 mph - N/A   Clear
10:15 AM 18.5 °F 7.5 °F 9.7 °F 68% 30.51 in 10.0 mi SW 9.2 mph - N/A   Clear
10:35 AM 19.2 °F 7.7 °F 9.7 °F 66% 30.51 in 10.0 mi WSW 10.4 mph - N/A   Clear
10:55 AM 20.3 °F 8.3 °F 9.5 °F 63% 30.51 in 10.0 mi WSW 11.5 mph - N/A   Clear
11:15 AM 21.4 °F 9.1 °F 8.8 °F 58% 30.50 in 10.0 mi SW 12.7 mph - N/A   Clear
11:35 AM 22.1 °F 10.0 °F 9.3 °F 58% 30.49 in 10.0 mi WSW 12.7 mph 18.4 mph N/A   Clear
11:55 AM 22.5 °F 9.9 °F 8.2 °F 54% 30.49 in 10.0 mi WSW 13.8 mph 19.6 mph N/A   Clear
12:15 PM 22.5 °F 9.4 °F 7.9 °F 54% 30.47 in 10.0 mi WSW 15.0 mph - N/A   Clear
12:35 PM 22.8 °F 10.9 °F 8.6 °F 55% 30.47 in 10.0 mi WSW 12.7 mph 18.4 mph N/A   Clear
12:55 PM 23.0 °F 10.6 °F 9.1 °F 55% 30.46 in 10.0 mi SW 13.8 mph 17.3 mph N/A   Clear
1:15 PM 24.3 °F 12.2 °F 9.7 °F 54% 30.46 in 10.0 mi SW 13.8 mph - N/A   Clear
1:35 PM 24.4 °F 13.0 °F 10.4 °F 55% 30.45 in 10.0 mi SW 12.7 mph - N/A   Clear
1:55 PM 24.6 °F 12.7 °F 10.8 °F 56% 30.44 in 10.0 mi SW 13.8 mph 17.3 mph N/A   Clear
2:15 PM 24.8 °F 12.9 °F 9.9 °F 53% 30.43 in 10.0 mi SW 13.8 mph - N/A   Clear
2:35 PM 25.3 °F 14.1 °F 10.0 °F 52% 30.43 in 10.0 mi SW 12.7 mph - N/A   Clear
2:55 PM 25.3 °F 14.7 °F 10.0 °F 52% 30.43 in 10.0 mi SW 11.5 mph - N/A   Clear
3:15 PM 25.5 °F 13.8 °F 10.0 °F 52% 30.43 in 10.0 mi SW 13.8 mph - N/A   Clear
3:35 PM 25.2 °F 13.3 °F 10.6 °F 54% 30.43 in 10.0 mi SW 13.8 mph - N/A   Clear
3:55 PM 24.8 °F 15.3 °F 11.5 °F 57% 30.44 in 10.0 mi SW 9.2 mph - N/A   Clear
4:15 PM 24.6 °F 15.1 °F 12.2 °F 59% 30.43 in 10.0 mi South 9.2 mph - N/A   Mostly Cloudy
4:35 PM 24.8 °F 15.3 °F 13.8 °F 63% 30.43 in 10.0 mi South 9.2 mph - N/A   Overcast
4:55 PM 24.6 °F 13.8 °F 14.5 °F 66% 30.43 in 10.0 mi South 11.5 mph - N/A   Overcast
5:15 PM 24.6 °F 15.1 °F 14.7 °F 66% 30.43 in 10.0 mi South 9.2 mph - N/A   Overcast
5:35 PM 24.8 °F 14.6 °F 15.1 °F 67% 30.42 in 10.0 mi South 10.4 mph - N/A   Overcast
5:55 PM 24.8 °F 14.0 °F 15.3 °F 67% 30.42 in 10.0 mi South 11.5 mph - N/A   Overcast
6:15 PM 25.3 °F 14.7 °F 15.8 °F 67% 30.42 in 10.0 mi SSW 11.5 mph - N/A   Overcast
6:35 PM 25.3 °F 15.3 °F 16.2 °F 68% 30.43 in 10.0 mi SSW 10.4 mph - N/A   Overcast
6:55 PM 25.5 °F 14.9 °F 16.5 °F 69% 30.42 in 10.0 mi SSW 11.5 mph - N/A   Overcast
7:15 PM 25.7 °F 15.7 °F 17.4 °F 71% 30.43 in 10.0 mi SSW 10.4 mph - N/A   Overcast
7:35 PM 25.7 °F 15.1 °F 17.2 °F 70% 30.42 in 10.0 mi SSW 11.5 mph - N/A   Overcast
7:55 PM 25.7 °F 15.1 °F 16.7 °F 69% 30.42 in 10.0 mi SSW 11.5 mph - N/A   Overcast
8:15 PM 23.9 °F 14.2 °F 16.7 °F 74% 30.41 in 10.0 mi SSW 9.2 mph - N/A   Scattered Clouds
8:35 PM 23.5 °F 13.0 °F 17.1 °F 76% 30.41 in 10.0 mi SSW 10.4 mph - N/A   Clear
8:55 PM 22.8 °F 13.6 °F 17.1 °F 79% 30.41 in 10.0 mi South 8.1 mph - N/A   Clear
9:15 PM 22.5 °F 12.4 °F 17.2 °F 80% 30.41 in 10.0 mi South 9.2 mph - N/A   Clear
9:35 PM 22.8 °F 12.9 °F 17.4 °F 80% 30.41 in 10.0 mi South 9.2 mph - N/A   Clear
9:55 PM 22.8 °F 12.2 °F 17.8 °F 81% 30.40 in 10.0 mi South 10.4 mph - N/A   Clear
10:15 PM 23.4 °F 12.8 °F 18.3 °F 81% 30.40 in 10.0 mi SSW 10.4 mph - N/A   Clear
10:35 PM 23.5 °F 11.8 °F 18.5 °F 81% 30.39 in 10.0 mi South 12.7 mph - N/A   Clear
10:55 PM 23.7 °F 12.1 °F 19.0 °F 82% 30.39 in 10.0 mi South 12.7 mph - N/A   Clear
11:15 PM 23.9 °F 11.7 °F 19.4 °F 83% 30.39 in 10.0 mi South 13.8 mph - N/A   Clear
11:35 PM 23.9 °F 12.3 °F 19.4 °F 83% 30.39 in 10.0 mi South 12.7 mph - N/A   Clear
11:55 PM 23.5 °F 12.4 °F 19.4 °F 84% 30.38 in 10.0 mi South 11.5 mph - N/A   Clear